BREEZE-M R/B, 42750

Orbit data source: Space-Track

BREEZE-M R/B, 42750 is space debris in HEO originally from a launch on Thu, 08 Jun 2017 UTC launched from the Tyuratam Missile And Space Complex (TTMTR). Debris objects in space refer to the collection of defunct objects orbiting the Earth. Examples of debris include non-operational satellites, rocket bodies, and fragments generated from explosions, collisions, or faulty payload assembly.

Loading next visibility...
Identifier
42750, 2017-032B
Orbit
HEO
Country
Flag of CISCIS
Related business
Manufacturer
Khrunichev
Mission
Spacecraft
Bus & Motor
BRIZ, Unknown motor
Mass
~1,600 kg wet, 1,600 kg dry
Launch date (UTC)
2017-06-08 (9 years ago)
Launch vehicle
Unknown
Launch site
Tyuratam Missile And Space Complex (TTMTR)
Object type
Payload
Rocket body
Debris
Shape & HBR
Cyl, 2.0 m
Radar Cross Section
15.135 m², Large (>1 m²)

Expand to show TLE details & history
Last TLE update: 2 days ago

TLE from 2 days ago
0 BREEZE-M R/B
1 42750U 17032B   26171.11212735 -.00000031  00000-0  00000+0 0  9994
2 42750  30.4004 205.9310 6700407 224.7276  56.1364  2.26363232 74741
Epoch: 2026-06-20T02:41Z
TLE epoch observation values (Epoch: 2026-06-20T02:41:27.803Z)
Latitude
-0.00008°
Longitude
-102.76641°
Altitude
19,372.322 km
Speed
3.833 km/s
True Right ascension
13h 43m 43s
True Declination
0° 00' 00"
Sunlit
Object was in daylight at epoch
Visualization orbit readout
Latitude
Unknown
Longitude
Unknown
Altitude
Unknown
Speed
Unknown
Apparent Right ascension
Unknown
Apparent Declination
Unknown
Sunlit
N/A
Visualization observer readout
Local Sidereal Time
21:41:26
Azimuth
Unknown
Elevation
Unknown
Doppler factor
Unknown
Orbital elements
Apogee altitude
34,545.404 km
Perigee altitude
1,707.356 km
Semi-major axis
24,504.517 km
Eccentricity
0.67004
Inclination
30.4004°
RAAN
205.931°
Arg. of periapsis
224.7276°
True anomaly
135.26445°
Mean anomaly
56.1364°
Eccentric anomaly
94.41308°
Mean motion
0.56581 °/min
Orbital period
636.25 mins
BSTAR
0
Loading maneuver chart data...
Computing Atmospheric mass density...
Loading historical data...
Loading historical data...
Loading historical data...
Loading historical data...
Loading historical data...
Loading historical data...
Loading historical data...
Other satellites on launch #32 in the year 2017 (2017-06-08 UTC)

Documentation

Showing up to 5 results
|